Temperature
27 27 26 26 25 24 24 24 24 25 25 25 25 24 24 23 23 22 22 21 20 19 19 18 18 18 18 17 17 16 15 15 14 14 13 13 13 12 12 12 11 11 11 11
26 27 26 26 26 25 25 25 25 25 25 26 25 25 24 24 23 23 22 22 21 20 19 19 19 18 18 18 17 16 16 15 15 14 14 13 13 12 12 12 11 11 11 11
25 27 26 25 26 26 25 26 25 25 25 25 25 24 23 23 23 23 22 22 21 20 20 19 19 19 19 18 18 17 16 16 15 15 14 14 13 13 12 12 12 12 11 11
25 26 24 27 28 28 26 26 26 26 26 25 25 23 23 22 22 22 22 21 21 20 20 19 19 19 19 18 18 17 17 17 16 15 15 14 13 13 13 12 12 12 11 11
25 25 26 26 27 27 26 25 26 26 26 25 25 24 23 22 22 21 21 21 20 20 20 20 20 19 19 19 19 18 18 17 16 16 15 14 14 13 13 13 12 12 12 11
24 24 24 27 27 27 26 25 27 26 26 25 25 23 22 22 21 21 20 20 20 19 19 20 19 19 19 19 19 18 18 17 17 16 15 15 14 14 14 13 13 13 12 12
23 24 26 26 26 26 24 25 27 26 26 25 25 23 22 21 20 20 20 19 19 19 19 19 19 18 18 18 18 18 18 17 17 16 15 15 15 15 14 14 13 13 13 12
23 23 24 25 25 25 25 26 26 26 25 25 24 22 21 20 20 19 19 19 18 18 18 18 18 18 18 18 18 18 17 17 16 16 16 15 15 15 14 14 13 13 13 13
25 25 25 25 25 24 25 26 25 25 24 23 23 22 21 20 19 19 18 18 18 18 18 18 18 18 17 17 17 17 17 16 16 16 15 15 15 15 15 14 14 13 13 13
26 25 25 25 24 23 23 24 24 23 23 22 22 21 20 19 18 18 18 18 17 17 17 17 17 17 17 17 16 16 16 16 15 15 15 15 15 15 15 15 14 14 13 13
25 26 25 24 23 22 22 22 22 22 22 21 21 20 19 18 17 17 17 16 16 16 16 16 16 16 16 16 16 15 15 15 14 15 15 15 15 15 15 15 15 15 14 14
24 26 26 24 23 22 21 21 21 20 20 20 20 19 18 17 16 16 16 15 15 15 15 14 14 15 15 15 14 14 14 13 13 14 14 14 14 15 15 15 15 15 14 14
26 26 26 26 24 22 21 21 20 20 19 18 18 17 17 16 15 14 14 14 14 13 13 13 13 13 13 13 13 13 12 12 12 12 12 13 13 13 13 14 14 14 14 14
26 25 23 22 22 21 20 20 19 19 18 17 16 16 15 14 14 13 13 13 12 12 12 12 12 12 12 12 12 11 11 11 11 11 11 12 12 12 12 13 13 14 14 14
24 24 23 21 20 19 19 18 18 17 16 15 15 14 14 13 13 12 12 11 11 11 11 10 10 10 10 10 11 10 10 10 10 10 10 10 11 11 11 12 12 13 13 13
23 22 22 21 19 19 18 17 17 16 15 14 14 13 13 12 12 11 11 11 10 10 10 9 9 9 9 9 10 9 9 9 9 9 9 9 10 10 10 11 11 11 12 12
22 21 20 20 19 18 17 16 16 15 14 13 13 12 12 11 11 10 10 10 9 9 9 9 8 8 8 8 9 8 8 8 8 8 8 8 8 9 9 9 9 10 10 10
23 22 21 20 18 17 16 16 16 14 13 13 12 11 11 11 10 10 9 9 9 8 8 8 8 7 8 8 8 7 7 7 7 7 7 7 8 8 8 8 8 8 8 9
23 22 20 19 18 17 16 15 15 13 12 12 11 11 10 10 10 9 9 9 8 8 7 7 7 7 7 7 7 7 7 7 7 7 7 7 7 7 7 7 7 7 7 7
20 20 19 18 17 16 15 14 13 12 11 11 10 10 10 9 9 9 8 8 8 7 7 7 7 7 7 7 7 7 6 6 6 6 6 6 6 6 6 6 6 6 6 6
18 17 17 16 15 14 13 12 12 11 10 10 10 9 9 9 8 8 8 8 7 7 7 7 6 6 7 7 7 6 6 6 6 6 6 6 6 6 6 6 6 5 5 5
15 15 14 13 13 12 11 11 10 10 9 9 9 9 8 8 8 8 8 7 7 7 7 6 6 6 6 6 6 6 6 6 6 6 6 6 6 5 5 5 5 5 5 5
13 13 12 12 11 11 10 10 9 9 9 9 8 8 8 8 8 8 7 7 7 7 7 6 6 6 6 6 6 6 6 6 6 6 6 5 5 5 5 5 5 5 4 4
12 11 11 11 10 10 10 9 9 8 8 8 8 8 8 7 7 7 7 7 7 7 6 6 6 6 6 5 5 5 5 5 5 5 5 5 5 4 4 4 4 4 4 4
11 11 10 10 10 10 9 9 8 8 8 7 7 7 7 7 7 7 7 7 6 6 6 6 5 5 5 5 5 5 5 5 5 5 4 4 4 4 4 4 4 4 4 3
10 10 10 10 10 9 9 8 8 7 7 7 7 7 7 7 7 6 6 6 6 6 6 6 5 5 5 5 5 5 5 5 4 4 4 4 4 4 3 3 3 3 3 3
10 9 9 9 9 9 9 8 8 8 8 7 7 7 7 7 7 6 6 6 6 6 6 5 5 5 5 5 5 4 4 4 4 4 3 3 3 3 3 2 2 2 2 2
Wind_Speed
10 3 2 4 8 10 10 10 8 5 5 4 5 5 3 3 3 3 4 6 6 6 6 6 6 4 4 1 3 2 2 3 2 2 3 2 3 4 4 5 7 6 6 6
10 6 6 9 10 11 12 10 9 7 5 3 4 2 1 2 3 3 3 4 5 6 6 6 6 6 6 5 5 4 3 4 3 1 2 2 4 3 4 5 6 5 5 6
11 10 8 10 15 15 12 10 7 7 1 6 2 3 4 5 3 1 1 3 4 3 3 3 4 4 3 3 3 3 4 3 3 2 0 2 4 4 5 6 5 4 5 5
10 7 8 3 1 10 12 10 7 5 1 2 2 4 4 2 1 2 1 2 3 3 4 5 5 5 4 5 5 6 5 4 3 4 4 4 4 5 6 4 4 4 5 5
8 10 9 5 5 7 8 9 10 8 5 4 3 4 6 6 4 3 3 3 2 1 2 4 4 3 3 4 5 4 3 3 3 3 4 4 5 5 5 4 4 5 5 5
7 7 8 3 12 9 6 6 10 10 8 6 5 3 5 7 5 4 4 3 2 1 2 2 1 2 3 5 4 2 2 3 3 3 3 5 6 6 5 4 5 5 6 6
10 8 5 9 12 10 6 4 11 10 7 6 3 6 7 7 6 5 4 2 2 1 1 1 2 3 4 5 4 2 1 1 1 3 5 6 6 6 5 5 6 6 7 7
8 9 6 11 9 7 3 6 8 8 6 5 8 9 8 7 6 4 4 3 1 1 1 1 1 2 4 4 5 4 1 2 4 5 6 7 7 7 7 6 7 7 7 7
6 3 6 7 5 4 3 4 6 7 7 6 6 7 8 7 6 5 4 3 2 1 2 2 1 1 3 5 5 5 5 5 6 7 8 8 8 7 7 7 6 6 6 6
5 6 10 7 6 6 3 1 6 7 6 6 6 8 8 7 6 5 5 5 4 4 4 4 5 5 5 5 6 7 7 7 6 6 7 7 6 7 6 6 6 6 6 5
9 7 5 8 9 9 7 6 6 6 5 5 7 8 8 8 6 5 5 5 5 5 5 6 7 8 8 8 8 8 8 7 7 7 7 6 6 5 7 7 7 7 6 5
7 8 9 11 13 12 11 10 9 8 7 6 7 8 9 8 6 6 6 6 6 7 7 7 8 9 10 10 9 9 8 8 7 7 7 7 7 7 9 10 12 14 13 10
10 7 3 4 14 14 12 11 10 10 10 8 7 8 10 8 6 7 7 7 7 7 7 8 8 9 9 9 9 9 8 7 7 7 8 8 8 7 8 8 11 12 13 13
7 6 6 6 8 10 11 11 10 10 11 10 9 9 10 9 8 7 7 7 6 6 7 7 8 8 8 9 9 9 8 8 8 7 8 8 8 8 7 7 7 6 9 14
6 8 7 8 10 11 11 11 12 11 11 11 9 9 10 9 8 7 6 6 6 7 7 7 7 7 7 8 9 9 7 6 6 7 7 7 7 8 8 8 7 7 6 5
9 8 8 11 14 14 14 14 14 13 13 12 10 9 10 10 8 7 6 6 6 6 6 6 6 6 7 8 9 7 6 9 9 7 7 7 8 8 8 9 9 8 8 7
12 14 13 14 16 16 16 15 14 14 14 13 12 11 11 10 8 7 7 6 7 6 6 6 6 6 6 8 8 6 6 8 11 8 7 8 8 8 8 9 9 9 10 11
15 16 15 15 15 15 15 14 14 14 14 13 13 11 10 10 9 7 6 6 7 7 6 5 5 6 6 7 7 6 6 6 6 6 6 7 8 7 8 8 10 10 10 11
11 11 12 13 14 15 14 14 14 14 14 14 12 11 9 9 8 7 6 5 5 5 5 5 6 5 6 8 10 6 6 6 6 6 6 8 7 7 7 7 8 8 9 9
4 6 8 11 13 13 13 13 14 14 13 13 12 11 10 9 8 7 7 5 5 4 3 4 4 4 5 8 11 7 6 6 6 6 5 6 6 6 6 7 7 8 8 8
3 7 10 12 12 13 13 14 14 13 12 12 11 10 9 8 7 6 5 5 6 4 2 3 2 3 5 8 11 7 6 6 5 5 5 5 6 6 6 6 6 6 7 7
5 8 11 12 13 13 12 13 13 13 11 10 11 10 9 8 7 5 5 4 5 4 1 2 2 4 7 10 7 7 7 6 5 5 5 5 6 6 6 7 6 6 6 6
7 9 11 12 13 13 13 12 13 11 10 9 9 9 8 6 5 4 4 4 5 5 1 2 2 5 9 7 7 7 7 7 6 5 5 6 6 7 7 7 6 6 6 6
8 10 11 11 12 13 13 12 11 9 9 8 7 7 6 5 4 3 3 6 6 4 2 3 5 8 8 6 7 7 6 6 6 6 6 6 7 7 7 7 7 6 7 8
9 10 11 11 11 9 10 11 11 9 8 6 7 6 5 4 3 3 2 3 4 4 4 5 8 9 7 6 6 6 6 6 7 7 7 7 7 7 7 7 7 7 7 8
7 7 7 7 7 6 8 8 7 7 6 6 5 5 5 4 4 4 2 3 4 5 4 4 5 6 5 5 5 6 6 7 8 7 7 7 8 8 8 8 11 9 8 9
7 6 5 5 5 5 6 6 6 6 6 6 6 5 5 4 4 4 3 2 2 3 3 3 4 4 5 5 5 6 6 6 7 7 7 7 8 8 9 11 10 9 10 11
Wind_Direction
274 195 235 237 200 199 225 247 271 338 18 13 65 86 114 155 171 179 187 174 181 184 199 199 203 219 259 164 149 185 213 244 253 289 306 322 315 312 322 326 327 335 341 335
274 244 235 251 238 214 216 238 261 289 295 83 76 107 138 155 139 170 190 180 177 187 203 208 200 200 220 207 182 184 204 222 208 217 318 341 314 319 322 313 303 313 323 324
270 242 221 249 232 221 216 216 230 248 184 90 60 50 38 36 36 339 111 135 159 188 205 223 230 209 215 144 132 193 221 213 177 167 247 295 301 305 292 284 288 301 299 304
264 238 227 253 120 192 202 208 208 232 146 120 121 123 137 143 104 342 53 118 151 176 196 209 230 218 195 174 202 214 211 187 171 178 205 236 258 270 274 275 293 296 291 288
254 259 255 203 171 177 183 206 200 204 199 169 155 169 151 119 94 64 54 70 101 154 236 221 232 247 240 224 220 212 180 163 195 207 211 223 247 264 271 272 276 282 286 280
255 257 264 243 147 151 175 227 185 182 179 169 189 212 125 107 97 84 69 52 49 44 287 313 342 342 320 304 298 275 188 172 192 210 232 238 243 252 262 268 266 271 275 268
255 263 264 108 122 140 194 232 157 163 160 168 155 92 110 106 94 87 89 68 36 316 317 3 349 319 289 287 300 324 100 129 228 242 245 244 241 243 254 262 265 267 274 271
220 238 238 139 150 175 128 102 126 139 139 128 104 106 111 104 94 87 94 89 45 326 316 353 330 303 301 314 333 349 346 244 247 250 254 260 240 234 238 251 262 265 265 267
209 189 101 145 146 101 81 146 133 130 120 121 128 127 119 111 101 85 76 73 47 4 355 360 11 359 326 333 338 328 304 270 253 249 245 242 240 236 234 236 242 253 256 259
250 164 173 184 144 146 172 152 112 118 130 152 146 130 123 115 105 90 70 60 44 37 32 22 24 40 25 355 339 326 311 298 286 276 269 256 241 231 231 234 239 247 253 258
238 246 181 177 185 178 176 172 148 146 151 148 132 125 120 111 99 89 78 67 56 47 37 29 27 29 21 5 352 336 322 316 312 303 296 289 276 251 241 235 231 233 240 244
220 233 218 197 191 184 178 180 170 160 146 134 131 127 116 106 99 90 79 68 58 48 40 37 36 34 22 6 358 348 339 334 331 326 319 312 303 295 267 256 256 246 239 239
239 252 297 159 166 172 177 177 169 160 150 141 127 123 120 117 111 102 88 74 64 55 45 42 40 32 16 2 354 344 337 342 341 333 327 322 317 311 305 294 273 264 256 250
203 139 121 127 147 164 172 167 159 151 146 141 134 127 124 120 112 101 93 87 75 65 54 48 42 30 9 359 352 343 343 354 352 333 324 320 318 315 311 308 305 295 266 252
172 167 166 160 160 172 165 160 160 157 149 142 139 137 134 128 119 109 98 92 85 71 55 48 40 22 7 4 353 343 344 352 342 325 321 325 328 325 321 319 317 314 315 301
198 188 182 174 174 176 173 174 172 165 157 150 147 141 131 123 118 114 106 96 89 77 58 48 34 10 11 14 352 340 335 348 349 335 341 351 348 343 342 343 343 342 341 345
201 197 195 191 185 184 183 182 175 165 159 154 148 140 135 133 131 127 122 114 103 90 70 54 27 360 19 24 354 340 339 348 353 352 356 358 351 347 350 353 354 353 349 349
216 204 198 195 189 184 183 179 170 160 156 150 145 147 149 145 138 132 126 121 115 102 79 55 19 351 17 32 355 337 340 348 349 351 352 354 347 349 355 356 356 356 352 354
216 197 188 184 181 178 177 170 158 151 146 147 150 149 143 136 134 133 127 115 107 99 81 45 355 359 18 27 0 332 337 342 343 345 346 347 348 348 350 351 351 352 353 356
174 157 162 164 164 164 160 152 147 144 147 151 148 143 140 139 141 141 135 125 107 81 57 29 351 10 11 8 350 325 328 332 334 335 337 338 337 339 341 344 345 346 349 351
131 138 142 143 145 145 145 146 145 147 148 148 147 146 143 141 145 144 141 135 116 89 6 313 328 28 18 352 330 316 317 320 321 323 326 326 326 326 328 332 335 336 338 340
123 130 135 138 140 143 144 145 146 146 145 146 145 143 143 148 151 145 133 131 128 132 264 306 38 33 354 338 313 306 305 308 311 314 315 316 316 316 316 319 319 321 323 324
144 141 143 146 148 148 147 147 148 147 148 147 147 150 153 148 147 154 156 143 129 129 259 315 3 331 327 321 304 301 302 306 311 313 314 315 314 311 309 308 307 307 305 304
155 153 153 154 155 153 153 149 145 145 147 145 147 149 145 143 159 166 137 135 147 159 243 266 277 289 298 290 288 292 299 306 309 311 315 310 302 297 296 297 298 298 297 300
161 161 162 162 159 156 151 146 143 146 148 148 153 157 165 160 150 135 115 133 159 192 246 270 280 280 273 273 281 292 303 306 307 306 298 295 297 301 301 302 302 299 298 296
159 156 153 158 153 149 151 151 153 155 159 161 166 166 167 155 152 155 182 224 238 235 244 259 269 272 276 289 301 307 307 307 307 305 305 309 308 308 307 309 308 306 303 301
150 142 140 152 145 150 152 155 158 165 168 167 167 167 168 164 165 178 197 226 261 273 279 287 293 299 303 305 306 306 306 305 305 307 309 310 310 310 310 310 310 307 306 303
Height
1486 1486 1490 1493 1497 1501 1506 1505 1506 1500 1499 1497 1496 1499 1501 1503 1504 1505 1506 1508 1509 1510 1512 1512 1513 1514 1514 1514 1512 1512 1511 1510 1508 1507 1505 1503 1501 1499 1497 1495 1493 1491 1489 1486
1489 1484 1488 1492 1491 1493 1497 1498 1498 1498 1498 1492 1496 1498 1499 1500 1502 1503 1505 1506 1507 1508 1509 1510 1511 1511 1511 1511 1510 1510 1509 1508 1507 1505 1504 1502 1500 1497 1495 1493 1491 1489 1487 1484
1494 1483 1488 1496 1485 1486 1489 1490 1494 1498 1495 1493 1495 1497 1499 1500 1501 1502 1503 1504 1505 1506 1507 1508 1509 1510 1510 1510 1509 1509 1508 1507 1506 1504 1502 1500 1498 1496 1494 1492 1489 1487 1485 1482
1493 1489 1504 1481 1466 1471 1480 1484 1486 1488 1490 1492 1495 1497 1499 1500 1501 1502 1502 1503 1504 1505 1506 1506 1507 1508 1508 1507 1507 1506 1506 1505 1504 1502 1500 1498 1496 1495 1492 1490 1488 1486 1483 1481
1491 1493 1486 1475 1469 1471 1478 1483 1481 1485 1488 1490 1493 1495 1497 1499 1500 1501 1501 1502 1503 1503 1504 1505 1505 1506 1506 1506 1505 1505 1504 1503 1502 1501 1499 1497 1495 1493 1491 1489 1486 1484 1482 1479
1489 1495 1494 1469 1464 1469 1476 1484 1476 1481 1485 1488 1490 1494 1497 1498 1499 1499 1500 1501 1501 1502 1503 1503 1504 1504 1504 1504 1504 1503 1502 1501 1500 1498 1497 1495 1493 1491 1489 1487 1484 1482 1480 1477
1493 1491 1477 1467 1466 1471 1489 1482 1472 1478 1482 1486 1488 1492 1496 1496 1497 1498 1499 1500 1500 1501 1501 1502 1502 1502 1502 1502 1502 1501 1499 1498 1497 1495 1494 1492 1490 1488 1486 1484 1482 1480 1477 1475
1487 1492 1483 1467 1469 1473 1475 1471 1473 1477 1481 1485 1488 1491 1493 1495 1496 1497 1498 1498 1499 1499 1500 1500 1500 1500 1500 1499 1499 1497 1496 1494 1493 1492 1490 1489 1487 1485 1483 1481 1479 1477 1475 1473
1470 1472 1466 1466 1468 1470 1471 1473 1475 1478 1481 1484 1487 1490 1492 1494 1495 1496 1497 1497 1497 1498 1498 1498 1498 1497 1497 1496 1495 1494 1493 1491 1489 1487 1486 1484 1483 1481 1479 1477 1475 1473 1472 1470
1460 1461 1463 1465 1467 1469 1471 1473 1475 1478 1481 1483 1486 1488 1490 1492 1493 1494 1495 1495 1496 1496 1496 1496 1496 1495 1493 1492 1491 1490 1489 1487 1486 1484 1482 1480 1478 1477 1475 1473 1472 1470 1469 1467
1458 1458 1459 1462 1464 1467 1469 1472 1474 1477 1479 1482 1484 1486 1488 1490 1491 1493 1493 1494 1494 1494 1494 1494 1493 1492 1491 1489 1488 1486 1485 1483 1482 1480 1478 1476 1474 1473 1471 1469 1468 1466 1465 1463
1455 1453 1454 1456 1459 1463 1466 1468 1471 1474 1477 1479 1481 1483 1485 1487 1489 1490 1491 1492 1492 1492 1492 1492 1491 1489 1488 1486 1485 1483 1481 1479 1477 1475 1473 1471 1469 1467 1466 1465 1463 1462 1460 1459
1446 1448 1449 1449 1453 1457 1461 1465 1468 1471 1473 1476 1479 1481 1482 1484 1487 1488 1489 1490 1490 1490 1490 1490 1488 1487 1485 1484 1482 1480 1479 1476 1474 1471 1469 1467 1465 1463 1461 1459 1458 1456 1455 1454
1441 1443 1447 1449 1452 1455 1458 1462 1465 1468 1471 1473 1476 1478 1480 1482 1484 1486 1487 1488 1488 1488 1488 1488 1487 1485 1484 1482 1480 1478 1477 1474 1471 1469 1466 1464 1462 1460 1458 1455 1453 1451 1450 1449
1437 1439 1443 1446 1449 1452 1455 1458 1462 1465 1467 1470 1473 1475 1478 1480 1482 1484 1485 1486 1486 1487 1486 1486 1485 1484 1482 1480 1478 1476 1475 1473 1470 1467 1465 1462 1460 1457 1455 1453 1451 1448 1446 1444
1434 1436 1439 1442 1444 1448 1451 1454 1457 1460 1463 1466 1470 1473 1475 1477 1479 1481 1483 1484 1485 1485 1485 1484 1483 1482 1481 1479 1476 1475 1473 1472 1469 1466 1464 1461 1458 1455 1453 1451 1448 1446 1444 1441
1428 1430 1433 1436 1439 1442 1445 1448 1452 1456 1460 1463 1466 1469 1472 1474 1477 1479 1481 1482 1483 1483 1483 1483 1482 1481 1480 1478 1476 1474 1473 1471 1468 1466 1463 1460 1457 1455 1453 1450 1447 1444 1442 1440
1420 1422 1425 1429 1433 1437 1441 1446 1449 1453 1456 1459 1463 1467 1470 1472 1475 1477 1479 1481 1482 1482 1482 1481 1481 1480 1479 1477 1475 1473 1472 1470 1468 1466 1463 1460 1458 1455 1452 1449 1446 1443 1440 1437
1412 1415 1419 1423 1428 1432 1437 1442 1446 1449 1453 1456 1460 1464 1467 1470 1473 1475 1477 1479 1480 1480 1481 1480 1480 1479 1478 1476 1474 1472 1471 1469 1467 1465 1463 1460 1458 1455 1452 1449 1446 1443 1440 1436
1407 1411 1415 1420 1425 1430 1434 1438 1442 1446 1450 1454 1458 1462 1465 1468 1471 1473 1475 1476 1477 1478 1479 1478 1478 1477 1476 1474 1472 1471 1470 1468 1467 1464 1462 1460 1457 1454 1451 1449 1445 1442 1439 1436
1407 1410 1413 1418 1423 1428 1433 1437 1441 1444 1449 1453 1456 1459 1463 1466 1469 1471 1473 1474 1475 1476 1476 1476 1476 1475 1474 1472 1470 1469 1468 1467 1465 1463 1461 1458 1456 1453 1450 1447 1444 1441 1438 1434
1409 1412 1415 1419 1424 1428 1433 1437 1440 1444 1448 1452 1455 1458 1461 1464 1467 1469 1471 1472 1473 1474 1474 1474 1474 1473 1472 1470 1468 1467 1466 1465 1463 1461 1459 1456 1454 1451 1448 1445 1442 1438 1435 1432
1413 1415 1418 1422 1425 1430 1434 1437 1441 1444 1447 1450 1453 1457 1460 1462 1465 1467 1469 1470 1471 1471 1471 1472 1471 1470 1469 1467 1465 1464 1464 1462 1461 1458 1456 1453 1451 1448 1445 1442 1438 1435 1432 1428
1415 1418 1421 1424 1427 1431 1434 1437 1440 1443 1446 1450 1453 1456 1458 1460 1463 1465 1467 1468 1468 1469 1469 1468 1468 1467 1465 1464 1463 1462 1461 1459 1457 1455 1452 1449 1446 1443 1441 1437 1434 1431 1427 1424
1417 1419 1422 1425 1428 1431 1434 1437 1440 1443 1446 1449 1451 1454 1456 1459 1461 1463 1464 1465 1466 1466 1465 1465 1464 1463 1462 1461 1460 1459 1458 1456 1453 1450 1448 1445 1442 1439 1436 1432 1429 1425 1422 1418
1418 1420 1423 1426 1428 1431 1433 1436 1439 1442 1444 1447 1450 1452 1455 1457 1458 1460 1461 1462 1463 1463 1462 1462 1461 1461 1460 1459 1457 1455 1453 1451 1448 1446 1443 1440 1437 1433 1430 1426 1423 1419 1415 1411
1418 1420 1422 1425 1428 1430 1433 1435 1438 1440 1443 1445 1448 1450 1452 1454 1456 1457 1458 1459 1460 1460 1459 1459 1458 1457 1456 1455 1453 1451 1449 1446 1444 1441 1438 1434 1431 1427 1424 1420 1416 1412 1408 1404